カタログに戻る

STARLINK-30301

運用中通信VLEO
NORAD 57666·PAYLOAD·🇺🇸 United States

打ち上げ Aug 22, 2023 から Vandenberg Space Force Base

Loading…

次のパス (今後24時間)

TLE

最新Source: CelesTrak SupGP

元期: Sep 15, 2026, 01:58 UTC

1 57666C 23124D   26258.08243056  .00066315  00000+0  19815-2 0  2587
2 57666  53.1577 105.6598 0000940 140.7274 287.8734 15.34002984    18

AllMySatでSTARLINK-30301をリアルタイム追跡

Download on the App Store